Torna al catalogo

THORAD AGENA D DEB

AttivoSSO
NORAD 42533·DEBRIS·🇺🇸 United States

Lanciato Apr 8, 1970 da Vandenberg Space Force Base

Loading…

Prossimi Passaggi (prossime 24 ore)

TLE

AggiornatoSource: Space-Track

Epoca: Sep 14, 2026, 14:18 UTC

1 42533U 70025SP  26257.59635843  .00001123  00000-0  90516-3 0  9997
2 42533  99.6541 178.0464 0136505  99.0554 262.6077 13.88417003646309

Traccia THORAD AGENA D DEB in tempo reale con AllMySat

Download on the App Store